Верблюжка

Россия / Оренбургская область     51°23′13″N   56°48′09″E
темп.,
°C
ветер,
м/с
пор.,
м/с
влажн.,
%
обл.,
%
осадки,
мм/ч
давл.,
гПа
погр.,
м
13 мая, чт
чт1323:00+15в33545 0.0 102722
02:00+14в22555 0.0 102713
05:00+12в22555 0.0 102811
08:00+17в24500 0.0 1028159
11:00+22юв34370 0.0 1028797
14:00+25юв33290 0.0 10271876
17:00+26вюв23280 0.0 10261980
20:00+21в22460 0.0 102612
14 мая, пт
пт1423:00+17в21500 0.0 102711
02:00+16в22500 0.0 102711
05:00+14в22510 0.0 102711
08:00+19вюв22470 0.0 1028119
11:00+24ююв23340 0.0 1028662
14:00+27ю12260 0.0 10272243
17:00+27юз12240 0.0 10262383
20:00+23всв11400 0.0 102611
15 мая, сб
сб1523:00+18всв22460 0.0 102611
02:00+17в22460 0.0 102511
05:00+16вюв11470 0.0 102611
08:00+20в12450 0.0 1026102
11:00+25юв33360 0.0 1026603
14:00+29в01280 0.0 10242524
17:00+29св23284 0.0 10232918
20:00+23в33490 0.0 102336
16 мая, вс
вс1623:00+20вюв22480 0.0 102311
02:00+18всв22490 0.0 102211
05:00+17в21540 0.0 102311
08:00+21в12510 0.0 1023118
11:00+26вюв22380 0.0 1022600
14:00+29юв23284 0.0 10213055
17:00+30в132625 0.0 10202949
20:00+24с334380 0.0 102035
17 мая, пн
пн1723:00+20в225288 0.0 102013
02:00+20в224969 0.0 102012
05:00+18вюв22585 0.0 102011
08:00+22вюв23531 0.0 1020163
11:00+27юв234064 0.0 1020648
14:00+29ю112995 0.0 10191421
17:00+29в11251 0.0 10181052
20:00+25вюв224027 0.0 101712